CAPE
0 0 0 0 0 0 0 0 0 0 0 33 40 70 493 177 64 9 0 0 0 0 0 57 57 80 78 0 0 0 0 0 0 0 0 0 28 13 46 113 405 515 645 699
0 0 0 0 0 0 0 0 0 0 0 17 21 28 520 285 160 115 90 60 32 15 1 36 55 30 81 0 0 0 0 0 0 0 0 0 0 0 0 29 352 551 808 689
0 0 0 0 0 0 0 0 0 0 0 0 15 5 224 394 273 125 92 81 81 104 85 28 35 49 19 6 0 0 0 0 0 0 0 0 0 0 0 11 189 403 672 1010
0 0 0 0 0 0 0 0 0 0 0 0 0 0 0 348 319 225 171 126 69 86 102 70 40 42 3 0 0 0 0 0 0 0 6 40 27 25 0 0 4 426 592 836
0 0 0 0 0 0 0 0 0 0 0 0 0 0 0 83 321 304 229 153 122 81 115 100 70 43 47 0 0 0 0 0 0 0 10 23 0 0 0 0 0 151 547 699
0 0 0 0 0 0 0 0 0 0 0 0 0 0 0 0 162 367 339 276 213 132 133 140 78 46 24 0 0 0 0 0 0 0 0 0 0 0 0 0 0 0 313 616
0 0 0 0 0 0 0 0 0 0 0 0 0 0 0 0 9 186 335 370 337 251 156 140 105 69 42 21 0 0 0 0 0 0 0 0 0 0 0 0 0 0 0 410
0 0 0 0 0 0 0 0 0 0 0 0 0 0 0 0 0 102 157 301 288 311 233 183 124 118 93 67 31 11 0 0 0 0 0 0 0 0 0 0 0 0 0 120
0 0 0 0 0 0 0 0 0 0 0 0 0 0 0 0 0 0 27 68 188 281 260 246 240 168 139 99 31 26 3 0 0 0 0 1 0 0 0 0 0 0 0 48
0 0 0 0 0 0 0 0 0 0 0 0 0 0 0 0 0 0 0 0 61 240 237 195 202 219 182 155 97 0 23 3 30 14 6 26 19 0 0 0 0 0 0 19
0 0 0 0 0 0 0 0 0 0 0 0 0 0 0 0 0 0 1 29 84 181 213 76 42 137 171 213 174 32 23 10 17 62 80 93 112 77 54 0 0 0 0 0
0 2 0 0 0 0 0 0 0 0 0 0 0 0 0 0 0 0 0 10 137 155 126 122 91 75 78 165 189 79 52 49 113 154 171 186 198 193 141 94 16 0 0 0
3 20 0 0 0 0 0 0 0 0 0 0 0 0 0 0 0 0 0 0 4 87 138 113 104 114 121 36 103 101 64 84 146 242 240 252 266 280 249 210 160 99 109 61
18 0 0 0 0 0 0 0 0 0 0 0 0 0 0 0 0 0 0 0 0 68 127 131 112 94 189 77 72 142 107 80 125 207 353 350 377 397 450 455 437 134 90 183
0 0 0 0 0 0 0 0 0 0 0 0 0 0 0 0 0 0 0 0 0 0 75 126 191 89 113 142 73 216 228 161 138 186 408 473 461 424 429 571 895 919 324 188
0 0 4 2 0 0 0 0 0 0 0 0 0 0 0 0 0 0 0 0 0 0 0 48 225 274 137 180 134 267 429 424 360 293 364 507 626 619 563 435 393 635 1034 923
0 1 22 0 0 0 0 0 0 0 0 0 0 0 0 0 0 0 0 0 0 0 0 0 42 215 181 234 230 320 492 573 582 519 504 525 624 856 883 906 834 571 512 851
0 0 31 0 0 0 0 0 0 0 0 0 0 0 0 0 0 0 0 0 0 0 0 0 0 214 259 274 284 346 449 626 726 676 710 805 842 884 1060 1237 1250 1221 1009 727
0 0 36 0 0 0 0 0 0 0 0 0 0 0 0 0 0 0 0 0 0 0 1 31 54 215 259 278 269 361 529 634 939 959 991 1040 1107 1126 1205 1381 1560 1619 1621 1478
0 0 8 14 1 125 11 0 0 0 0 0 0 0 0 0 0 0 0 0 0 0 1 498 50 157 202 234 256 385 608 742 1079 1243 1324 1412 1434 1533 1568 1530 1588 1811 1935 2004
37 36 8 4 16 17 2 0 0 0 0 0 0 0 0 0 0 0 0 0 0 0 0 598 548 130 207 310 333 413 563 786 964 1200 1542 1690 1805 1800 1857 1923 2004 1997 2093 2205
31 6 19 12 15 26 1 0 0 0 0 0 0 0 0 0 0 0 0 0 0 0 0 7 1144 1326 763 237 482 476 528 513 616 863 1378 1703 1837 2037 2090 2114 2251 2413 2376 2431
19 19 3 5 9 12 1 6 0 0 0 0 0 0 0 0 0 0 0 0 0 0 0 0 5 599 987 1499 1370 1485 1449 733 1029 842 1042 1142 1739 2046 2222 2391 2473 2540 2654 2749
11 8 8 3 1 10 0 0 0 0 0 0 0 0 0 0 0 0 0 0 0 0 0 0 0 0 0 467 838 1152 1644 2050 1628 1456 1476 1598 1404 1462 1815 2246 2492 2680 2782 2855
13 8 5 2 1 8 3 7 0 0 0 0 0 0 0 0 0 0 0 0 0 0 0 0 0 0 0 0 331 509 621 696 1235 1614 1867 2177 1909 1577 2035 1595 1169 2262 2355 2091
24 3 3 3 1 4 2 16 2 0 0 0 0 0 0 0 0 0 0 0 0 0 0 0 0 0 0 0 0 33 415 458 548 735 904 834 1196 2176 1283 91 0 0 1 2
CIN
-0 -0 -0 -0 -0 -0 -0 -0 -0 -0 -0 -120 -194 -199 -185 -230 -268 -371 -0 -0 -0 -0 -0 -209 -183 -181 -188 -1 -0 -0 -0 -0 -0 -0 -0 -0 -220 -252 -240 -273 -208 -193 -166 -149
-0 -0 -0 -0 -0 -0 -0 -0 -0 -0 -0 -141 -143 -166 -159 -215 -336 -379 -395 -384 -382 -338 -121 -239 -195 -137 -203 -0 -0 -0 -0 -0 -0 -0 -0 -0 -0 -0 -0 -304 -217 -188 -152 -157
-0 -0 -0 -0 -0 -0 -0 -0 -0 -0 -0 -15 -116 -47 -122 -136 -184 -210 -269 -316 -309 -316 -314 -293 -227 -224 -131 -57 -0 -0 -0 -0 -0 -0 -0 -0 -0 -0 -0 -182 -225 -198 -163 -130
-0 -0 -0 -0 -0 -0 -0 -0 -0 -0 -0 -0 -0 -0 -0 -173 -195 -207 -275 -316 -348 -329 -308 -322 -288 -222 -46 -0 -0 -0 -0 -0 -0 -0 -89 -210 -208 -177 -0 -0 -46 -192 -175 -145
-0 -0 -0 -0 -0 -0 -0 -0 -0 -0 -0 -0 -0 -0 -0 -204 -180 -248 -280 -321 -369 -367 -348 -362 -362 -305 -260 -0 -0 -0 -0 -0 -0 -0 -303 -276 -0 -0 -0 -0 -0 -238 -189 -168
-0 -0 -0 -0 -0 -0 -0 -0 -0 -0 -0 -0 -0 -0 -0 -0 -285 -301 -297 -323 -363 -380 -377 -345 -359 -294 -252 -0 -0 -0 -0 -0 -0 -0 -0 -0 -0 -0 -0 -0 -0 -0 -236 -194
-0 -0 -0 -0 -0 -0 -0 -0 -0 -0 -0 -0 -0 -0 -0 -0 -155 -282 -326 -356 -370 -406 -371 -346 -361 -350 -302 -169 -0 -0 -0 -0 -0 -0 -0 -0 -0 -0 -0 -0 -0 -0 -0 -241
-0 -0 -0 -0 -0 -0 -0 -0 -0 -0 -0 -0 -0 -0 -0 -0 -0 -248 -286 -326 -311 -351 -397 -383 -357 -394 -383 -349 -387 -450 -0 -0 -0 -0 -0 -0 -0 -0 -0 -0 -0 -0 -0 -350
-0 -0 -0 -0 -0 -0 -0 -0 -0 -0 -0 -0 -0 -0 -0 -0 -0 -0 -329 -319 -310 -318 -351 -345 -375 -420 -406 -373 -410 -522 -51 -0 -0 -0 -0 -40 -0 -0 -0 -0 -0 -0 -0 -396
-0 -0 -0 -0 -0 -0 -0 -0 -0 -0 -0 -0 -0 -0 -0 -0 -0 -0 -0 -0 -334 -332 -362 -347 -306 -404 -465 -388 -389 -1 -428 -109 -521 -509 -219 -495 -488 -0 -0 -0 -0 -0 -0 -280
-0 -0 -0 -0 -0 -0 -0 -0 -0 -0 -0 -0 -0 -0 -0 -0 -0 -0 -132 -406 -370 -358 -396 -431 -401 -359 -479 -444 -417 -521 -528 -435 -319 -515 -530 -488 -467 -462 -454 -0 -0 -0 -0 -0
-0 -1 -0 -0 -0 -0 -0 -0 -0 -0 -0 -0 -0 -0 -0 -0 -0 -0 -0 -134 -377 -395 -390 -449 -417 -399 -452 -459 -496 -526 -539 -542 -492 -505 -503 -488 -444 -415 -411 -402 -445 -0 -0 -0
-5 -0 -0 -0 -0 -0 -0 -0 -0 -0 -0 -0 -0 -0 -0 -0 -0 -0 -0 -0 -229 -414 -428 -430 -406 -426 -443 -562 -562 -568 -589 -548 -491 -460 -465 -461 -429 -406 -416 -389 -394 -427 -408 -425
-1 -0 -0 -0 -0 -0 -0 -0 -0 -0 -0 -0 -0 -0 -0 -0 -0 -0 -0 -0 -0 -496 -466 -482 -434 -481 -489 -592 -677 -668 -609 -570 -529 -496 -450 -458 -451 -428 -389 -367 -353 -449 -448 -388
-0 -0 -0 -0 -0 -0 -0 -0 -0 -0 -0 -0 -0 -0 -0 -0 -0 -0 -0 -0 -0 -0 -487 -462 -463 -517 -505 -593 -744 -661 -603 -599 -582 -595 -501 -485 -464 -444 -409 -372 -321 -295 -406 -439
-0 -0 -0 -0 -0 -0 -0 -0 -0 -0 -0 -0 -0 -0 -0 -0 -0 -0 -0 -0 -0 -0 -0 -473 -460 -444 -613 -632 -723 -740 -658 -589 -587 -620 -595 -505 -439 -424 -428 -465 -490 -390 -290 -306
-0 -0 -0 -0 -0 -0 -0 -0 -0 -0 -0 -0 -0 -0 -0 -0 -0 -0 -0 -0 -0 -0 -0 -0 -348 -478 -506 -563 -691 -762 -729 -621 -582 -594 -566 -531 -483 -423 -393 -376 -401 -472 -476 -360
-0 -0 -1 -0 -0 -0 -0 -0 -0 -0 -0 -0 -0 -0 -0 -0 -0 -0 -0 -0 -0 -0 -0 -0 -0 -478 -538 -546 -584 -739 -711 -656 -609 -592 -560 -525 -506 -473 -396 -350 -366 -362 -389 -460
-0 -0 -0 -0 -0 -0 -0 -0 -0 -0 -0 -0 -0 -0 -0 -0 -0 -0 -0 -0 -0 -0 -121 -1233 -663 -530 -610 -607 -765 -788 -724 -698 -614 -594 -587 -574 -535 -487 -451 -416 -368 -343 -317 -346
-0 -0 -0 -0 -0 -9 -0 -0 -0 -0 -0 -0 -0 -0 -0 -0 -0 -0 -0 -0 -0 -0 -148 -852 -927 -726 -747 -742 -719 -803 -731 -720 -684 -640 -638 -577 -526 -492 -478 -478 -436 -368 -319 -318
-0 -0 -0 -0 -0 -0 -0 -0 -0 -0 -0 -0 -0 -0 -0 -0 -0 -0 -0 -0 -0 -0 -0 -829 -911 -1053 -928 -782 -701 -783 -767 -730 -713 -647 -574 -522 -482 -484 -452 -408 -374 -369 -327 -286
-0 -0 -0 -0 -0 -0 -0 -0 -0 -0 -0 -0 -0 -0 -0 -0 -0 -0 -0 -0 -0 -0 -0 -172 -604 -620 -885 -937 -737 -791 -792 -857 -817 -739 -639 -551 -509 -461 -436 -424 -377 -326 -316 -293
-0 -0 -0 -0 -0 -0 -0 -0 -0 -0 -0 -0 -0 -0 -0 -0 -0 -0 -0 -0 -0 -0 -0 -0 -935 -713 -621 -567 -629 -581 -622 -798 -707 -761 -720 -716 -573 -497 -452 -400 -367 -337 -307 -291
-0 -0 -0 -0 -0 -0 -0 -2 -0 -0 -0 -0 -0 -0 -0 -0 -0 -0 -0 -0 -0 -0 -0 -0 -0 -0 -0 -723 -623 -575 -516 -482 -609 -657 -646 -617 -645 -622 -521 -424 -381 -356 -330 -316
-0 -0 -0 -0 -0 -1 -0 -2 -0 -0 -0 -0 -0 -0 -0 -0 -0 -0 -0 -0 -0 -0 -0 -0 -0 -0 -0 -0 -708 -676 -685 -706 -591 -548 -512 -455 -520 -602 -487 -593 -717 -440 -411 -498
-0 -0 -0 -0 -0 -0 -3 -4 -0 -0 -0 -0 -0 -0 -0 -0 -0 -0 -0 -0 -0 -0 -0 -0 -0 -0 -0 -0 -0 -239 -639 -712 -732 -693 -651 -700 -608 -394 -596 -1078 -0 -0 -0 -0
Wind_Speed
4 5 19 22 12 2 4 5 6 6 7 6 11 6 15 16 13 16 19 20 20 21 17 15 14 14 14 13 12 13 12 8 7 3 4 2 3 2 1 3 5 6 5 4
4 14 11 5 5 5 6 2 4 4 3 8 6 13 15 20 23 24 22 21 20 17 17 17 16 15 17 15 15 13 14 9 8 6 3 3 3 2 2 3 4 5 6 6
7 6 12 9 6 10 11 7 4 2 3 6 2 7 9 14 9 14 15 16 18 22 21 20 19 18 16 17 16 14 15 12 11 9 4 3 3 3 2 1 2 4 6 6
10 8 11 13 14 10 11 13 14 5 2 4 6 5 7 11 18 19 17 18 19 20 19 18 20 19 17 17 15 15 14 13 11 11 9 8 6 6 4 4 3 4 6 7
6 8 10 12 20 15 13 7 10 8 4 3 4 0 8 12 13 18 20 20 20 21 22 22 23 22 17 15 15 14 14 13 12 12 12 10 8 4 3 3 6 5 5 6
8 4 7 16 9 14 3 1 4 3 4 10 13 9 8 8 14 16 18 21 21 21 22 20 18 17 17 16 15 14 14 14 14 13 14 13 13 7 5 4 5 4 3 4
6 6 5 4 7 8 12 9 2 2 5 15 9 10 13 6 11 18 24 23 23 21 20 20 20 20 19 19 17 15 15 15 15 16 15 13 13 11 11 9 6 6 4 3
5 4 6 1 10 8 11 12 8 9 7 13 6 9 8 19 8 17 16 22 19 18 19 22 22 21 21 21 19 19 19 17 15 16 16 15 13 9 8 8 6 7 6 5
4 8 5 5 1 3 6 17 12 4 3 1 9 5 9 5 11 11 17 13 18 21 21 21 22 22 22 21 23 21 19 19 18 18 15 13 12 11 10 9 8 6 5 6
2 6 4 6 4 8 9 6 7 4 7 6 4 6 9 9 10 9 8 13 15 19 19 19 18 22 22 22 21 20 21 21 18 18 16 14 15 14 11 8 9 7 7 6
2 4 9 5 6 10 7 9 6 8 7 8 2 7 7 11 15 14 11 14 16 18 20 21 20 19 21 20 20 20 20 20 18 17 16 16 14 14 12 10 10 10 8 9
2 2 7 10 8 3 3 4 4 9 13 6 3 8 5 10 9 13 15 14 15 18 22 22 23 19 18 21 20 20 20 19 19 18 17 17 15 14 14 12 12 11 11 9
2 2 5 8 1 5 4 2 6 5 3 15 14 7 6 5 6 10 9 8 11 16 18 16 14 17 19 20 20 20 19 20 19 17 17 16 15 14 15 14 12 12 11 11
2 3 7 6 2 4 6 9 6 5 3 5 14 10 7 9 8 9 9 7 7 8 13 15 16 17 18 19 20 20 19 19 18 17 17 17 17 17 16 15 14 13 13 13
2 5 5 15 16 11 11 15 12 5 12 5 4 11 9 12 11 7 5 6 9 8 10 15 18 18 19 17 16 18 19 18 18 18 18 18 17 15 14 14 15 14 13 13
1 5 7 14 14 15 15 16 14 15 18 13 17 11 5 5 6 6 4 6 6 11 13 16 21 21 21 20 19 19 19 19 18 18 18 17 16 15 16 14 14 13 13 13
6 4 4 6 4 5 9 16 9 7 13 5 6 2 5 4 9 7 8 8 10 10 14 18 21 22 21 22 20 21 20 18 18 18 17 16 15 16 15 14 12 13 14 12
7 4 3 6 4 3 3 5 19 16 13 14 9 13 5 6 7 8 10 10 12 14 14 12 18 20 21 20 19 14 17 17 18 16 15 14 15 15 14 13 14 13 12 14
7 5 4 3 3 6 7 8 7 5 8 14 13 14 10 9 5 5 16 12 11 12 12 10 8 11 11 16 16 16 16 16 16 17 17 16 16 16 15 16 15 13 13 12
6 4 2 3 4 6 8 13 5 2 6 13 13 14 14 5 7 6 17 15 15 13 12 9 4 8 11 10 14 16 16 17 18 18 18 15 16 16 16 16 16 13 13 13
5 3 7 8 3 8 14 19 4 5 2 8 11 11 11 6 1 8 13 15 14 13 16 14 11 8 6 13 15 14 14 17 12 11 12 13 14 15 14 12 12 12 12 11
4 5 3 5 4 4 17 7 7 3 3 6 10 8 9 8 8 9 12 16 18 20 21 19 14 12 7 5 12 11 10 7 9 11 12 13 13 12 11 13 11 12 12 12
2 2 2 2 1 8 10 9 5 6 4 5 6 11 9 7 11 11 11 15 16 18 18 18 16 15 14 11 8 10 3 7 8 10 11 11 11 12 11 12 11 10 11 10
5 7 1 3 3 7 5 3 3 6 5 8 7 8 7 6 8 10 10 12 12 14 16 14 17 17 16 14 13 8 6 5 8 8 6 5 7 8 8 8 9 9 9 9
3 7 7 2 6 6 4 10 9 9 8 10 7 4 6 7 8 6 9 10 10 10 12 13 13 13 14 12 12 11 9 6 7 7 5 5 4 6 6 4 4 7 6 7
8 3 3 4 11 4 4 10 16 11 10 8 6 2 5 7 7 8 7 6 7 10 10 10 12 12 12 11 10 11 9 7 6 6 4 3 2 2 3 4 2 7 4 2
Wind_Direction
195 164 208 206 205 309 174 187 187 220 210 151 207 180 182 181 182 184 181 186 197 202 196 195 195 184 184 185 181 178 181 182 161 146 150 169 193 191 192 188 185 181 179 182
127 227 227 186 186 211 256 231 226 282 235 171 212 220 185 183 194 188 186 188 196 198 202 200 195 193 191 184 188 182 190 173 182 183 154 151 156 205 161 156 188 180 181 175
180 232 163 186 175 197 230 215 227 186 351 221 162 259 168 202 196 201 207 204 194 190 196 200 199 198 194 194 189 187 188 184 185 176 125 94 80 45 54 84 158 198 186 183
230 231 192 186 211 177 224 218 242 267 35 222 167 257 229 181 200 200 202 201 198 197 198 198 198 202 198 198 190 189 190 185 186 175 175 181 185 185 193 175 174 188 191 194
214 180 180 210 217 181 232 161 208 233 215 330 262 158 254 176 203 207 205 207 202 200 195 200 200 201 203 189 193 190 188 188 185 183 187 190 200 175 159 162 177 183 191 198
214 209 195 221 202 202 170 61 135 115 149 243 223 208 263 184 210 207 210 211 207 202 201 198 199 199 205 204 191 189 186 191 183 182 194 194 199 173 164 171 184 195 196 195
336 224 165 227 201 208 179 144 272 202 207 232 212 213 235 208 216 203 204 209 209 205 197 197 191 196 200 203 193 189 188 194 188 187 189 196 199 185 193 186 186 175 183 189
341 221 160 63 188 195 200 179 170 192 211 228 180 217 242 221 219 213 210 210 206 208 204 198 193 194 198 199 196 192 191 194 189 191 195 195 196 195 198 189 190 196 192 188
12 270 325 244 3 195 193 209 176 104 205 142 201 256 307 192 215 215 221 198 199 202 203 208 195 197 196 198 197 192 193 197 191 191 193 198 195 194 196 188 189 194 179 180
141 295 260 305 293 208 204 176 181 202 203 221 247 206 209 204 220 215 206 201 201 200 200 205 200 196 198 198 198 192 197 195 194 193 193 195 197 196 193 185 191 188 184 179
112 168 292 340 209 205 188 213 236 177 198 202 178 240 209 202 204 214 208 199 196 197 200 201 201 200 195 196 193 192 194 196 196 196 194 193 196 195 190 190 194 194 189 188
174 272 264 251 264 7 344 240 254 205 217 225 132 251 233 203 218 221 204 203 202 200 205 202 203 194 185 191 191 189 193 192 196 193 190 195 192 191 192 193 194 188 195 190
161 207 296 299 87 63 83 49 24 320 280 205 210 238 259 188 230 244 224 229 211 209 214 209 198 196 190 187 187 187 188 194 193 189 192 192 194 190 194 197 194 191 187 195
93 255 228 244 34 18 311 313 8 17 311 274 221 209 198 253 229 256 249 241 204 211 205 197 201 197 196 189 186 186 187 190 190 188 190 192 193 194 195 194 193 189 190 199
122 252 264 268 275 277 267 279 292 249 242 216 226 204 222 220 227 214 264 321 303 237 198 195 202 193 198 190 179 184 186 185 185 185 189 196 195 193 194 194 197 194 194 202
288 272 308 288 248 241 264 265 261 243 249 244 261 265 335 22 37 28 3 317 259 253 241 207 202 197 190 185 183 180 180 182 181 186 193 192 190 189 194 194 194 195 197 203
180 246 278 263 291 5 287 217 199 97 22 285 191 265 333 39 63 25 353 347 320 299 273 227 208 193 189 184 178 182 178 170 181 187 191 190 188 192 194 195 191 197 201 197
176 200 246 278 277 168 163 81 97 91 46 11 356 356 48 135 140 55 8 354 332 322 317 244 201 194 188 181 181 160 168 173 181 186 185 183 185 190 188 188 196 201 198 203
168 164 268 255 203 287 154 17 54 41 40 12 352 350 343 296 314 360 355 343 337 331 310 294 187 173 167 169 165 159 167 168 174 184 187 186 185 187 186 192 198 200 200 204
110 112 244 230 211 218 60 341 345 181 51 360 350 351 353 58 65 314 332 344 355 348 351 329 124 126 134 147 152 156 167 171 184 187 189 184 186 187 192 195 197 199 204 211
142 197 222 248 276 273 352 318 258 86 129 340 339 336 353 43 315 294 327 360 9 12 15 12 40 76 120 146 151 161 166 191 178 172 174 180 187 192 196 193 194 194 201 209
166 206 204 204 207 212 349 336 64 47 39 326 328 322 328 347 351 355 351 8 12 17 21 22 40 45 45 73 151 156 172 148 155 161 171 184 188 190 189 189 191 193 195 203
98 2 261 313 349 279 316 305 65 38 323 318 310 322 316 340 5 359 352 9 17 20 24 23 28 36 39 41 92 101 123 146 149 162 178 183 186 189 189 190 193 192 193 200
360 26 192 340 321 333 329 58 25 335 310 297 294 299 313 336 350 2 4 11 16 24 25 19 26 29 29 20 38 44 43 82 111 121 143 163 173 179 191 191 192 194 201 202
327 315 332 271 264 138 174 347 343 333 308 288 286 288 322 343 351 357 358 3 5 18 19 27 23 23 22 14 21 25 25 40 75 83 88 103 148 181 176 158 190 204 198 214
355 320 3 282 307 282 300 332 337 320 297 287 300 325 341 354 344 348 346 347 4 4 8 18 19 17 10 13 12 10 10 21 45 71 68 75 75 141 160 162 165 45 9 326